[[{"header":{"parameterUnit":"m.s-1","parameterCategory":1,"la1":30.2991,"la2":30.254,"lo1":-89.0895,"lo2":-89.0444,"dy":0.0017,"dx":0.0017,"nx":28,"ny":28,"refTime":"2024-02-23T09:00:00:Z","depth":0,"parameterNumber":2,"parameterNumberName":"U-component_of_WINDS"},"data":[0,0,0,0,0,0,0,0,0,0,0,0,0,0,0,0,0,0,0,0,0,0,0,0,0,0,0,0,0,0,0,0,0,0,0,0,0,0,0,0,0,0,0,0,0,0,0,0,0,0,0,0,0,0,0,0,0,0,4.5403,4.5404,0,4.5529,4.5531,4.5532,4.5502,4.55,4.5497,4.5495,4.5627,4.5632,4.5638,0,0,0,0,0,0,0,0,0,0,0,0,0,4.5139,4.5144,4.5403,4.5404,4.5406,4.5529,4.5531,4.5532,4.5503,4.55,4.5497,4.5494,4.5625,4.5632,4.5638,0,0,0,0,0,0,0,0,0,0,0,0,0,4.5258,4.5146,4.5402,4.5406,4.5407,4.5529,4.5531,4.5533,4.5503,4.55,4.5496,4.5493,4.5622,4.5631,4.5639,4.5766,0,0,4.5666,4.567,0,0,0,0,0,0,0,0,4.5252,4.5268,4.5404,4.5406,4.5408,4.5496,4.5486,4.5611,4.5504,4.5467,4.5495,4.5491,4.5586,4.5598,4.5629,4.5772,4.5777,4.5667,4.5672,4.5676,4.5678,0,0,0,0,0,0,0,4.5243,4.5262,4.5453,4.5406,4.5408,4.5402,4.5415,4.5509,4.5546,4.547,4.5468,4.5483,4.5587,4.5621,4.5632,4.5779,4.5666,4.5674,4.5679,4.5683,4.6035,4.6039,0,0,0,0,0,0,4.5233,4.5256,4.5449,4.5457,4.5319,4.541,4.5424,4.5472,4.5544,4.5552,4.5486,4.5481,4.5608,4.5622,4.5637,4.5792,4.5675,4.5684,4.5689,4.6031,4.6036,4.604,0,0,0,0,0,0,4.5227,4.5251,4.5444,4.5356,4.538,4.5418,4.5472,4.5476,4.551,4.5557,4.5563,4.5515,4.5606,4.5625,4.5734,4.5796,4.5687,4.5695,4.6026,4.6032,4.6038,4.6101,0,0,0,0,0,0,4.522,4.5249,4.5296,4.5357,4.5385,4.5538,4.5475,4.5481,4.5525,4.552,4.5585,4.5593,4.5604,4.5722,4.5743,4.5806,4.5702,4.6021,4.6029,4.6036,4.6094,4.6108,4.6121,0,0,0,0,0,4.5211,4.5309,4.5299,4.5322,4.5445,4.5542,4.5558,4.5569,4.553,4.5579,4.5609,4.559,4.5785,4.5733,4.5757,4.5823,4.6017,4.6026,4.6035,4.6087,4.6106,4.6121,0,0,0,0,0,0,4.5254,4.5317,4.5306,4.5426,4.5479,4.5537,4.5598,4.5587,4.5653,4.5645,4.5657,4.5672,4.5784,4.5814,4.5755,4.5951,4.5896,4.591,4.5927,4.5945,4.5958,4.5949,4.5709,0,0,0,0,0,4.5277,4.535,4.5401,4.5503,4.5529,4.556,4.5602,4.5606,4.5662,4.5684,4.5722,4.5777,4.5851,4.5899,4.5969,4.6097,4.6113,4.6155,4.6169,4.618,4.6193,4.6265,4.6285,4.6071,4.6071,4.6071,0,0,4.5327,4.537,4.5415,4.5512,4.5554,4.563,4.5578,4.5661,4.5718,4.5696,4.5803,4.5833,4.5895,4.6016,4.607,4.6044,4.6255,4.6192,4.62,4.6207,4.6277,4.6297,4.6315,4.6077,4.6076,4.6075,0,0,4.5456,4.5495,4.5585,4.5628,4.5691,4.5711,4.5732,4.5792,4.5812,4.5918,4.5904,4.5973,4.6099,4.6145,4.6185,4.6334,4.632,4.6357,4.643,4.65,4.6517,4.6532,4.6588,4.6607,4.6369,4.6369,4.6369,0,4.551,4.5624,4.5633,4.5718,4.5762,4.5746,4.5838,4.5879,4.5962,4.5994,4.5963,4.6123,4.6163,4.6295,4.6332,4.6364,4.6391,4.635,4.6514,4.6529,4.6543,4.6596,4.6617,4.6373,4.6373,4.6373,4.6372,0,4.5688,4.5767,4.5833,4.5914,4.5965,4.6053,4.6077,4.6128,4.6128,4.6152,4.6262,4.6311,4.6392,4.6423,4.6423,4.6556,4.6538,4.6511,4.6456,4.6568,4.6618,4.6638,4.6379,4.6378,4.6377,4.6376,0,0,4.5848,4.5934,4.5958,4.5996,4.6065,4.6127,4.6215,4.6294,4.6339,4.6397,4.6473,4.6581,4.6557,4.6602,4.6608,4.667,4.6788,4.6635,4.6637,4.6664,4.6939,4.6961,4.6984,4.6779,4.6783,4.6786,4.6935,0,4.5985,4.614,4.6152,4.6292,4.6367,4.6353,4.6431,4.6482,4.6507,4.6575,4.6602,4.668,4.6641,4.6669,4.6729,4.6761,4.6844,4.675,4.6851,4.6855,4.6837,4.701,4.7032,4.717,4.6954,4.6958,4.696,0,4.6166,4.623,4.6378,4.6439,4.6471,4.654,4.6614,4.6679,4.6738,4.6752,4.6804,4.6802,4.6894,4.6835,4.6964,4.69,4.6942,4.6965,4.697,4.6981,4.6915,4.7027,4.7214,4.7236,4.699,4.6988,4.6986,0,4.627,4.6394,4.6499,4.6531,4.6604,4.6654,4.6686,4.6742,4.6789,4.6855,4.6886,4.6962,4.7003,4.7063,4.7082,4.7037,4.7211,4.7153,4.7227,4.7227,4.7265,4.7262,4.7463,4.7289,4.7289,4.7289,4.7288,0,4.6423,4.6515,4.6547,4.6612,4.6715,4.6728,4.683,4.686,4.691,4.6982,4.6974,4.7042,4.7062,4.7134,4.7149,4.7255,4.7274,4.7289,4.7292,4.729,4.7289,4.7319,4.7311,4.7294,4.7293,4.7292,4.7291,0,4.6558,4.6582,4.6697,4.6757,4.6774,4.6848,4.69,4.6963,4.6987,4.7078,4.71,4.7138,4.7222,4.7247,4.7348,4.7359,4.7483,4.7477,4.7463,4.7464,4.7537,4.753,4.7766,4.7798,4.7601,4.7603,4.7605,0,4.6654,4.6725,4.6793,4.684,4.6875,4.6951,4.7,4.7016,4.7068,4.7142,4.7197,4.728,4.7347,4.7483,4.752,4.7598,4.7595,4.7672,4.7606,4.7603,4.7598,4.7594,4.7603,4.7684,4.7687,4.7688,4.769,0,4.6824,4.6833,4.6903,4.6979,4.7037,4.7098,4.7155,4.7195,4.722,4.7278,4.7364,4.7416,4.752,4.7604,4.7683,4.7718,4.771,4.771,4.7731,4.7731,4.7721,4.7729,4.7499,4.7705,4.7703,4.7702,4.7701,4.7701,4.6944,4.7007,4.7065,4.7144,4.719,4.7244,4.7307,4.7339,4.7411,4.7497,4.7502,4.7596,4.7656,4.7762,4.7801,4.7876,4.7853,4.7884,4.7892,4.79,4.7907,4.7708,4.789,4.789,4.7889,4.7889,4.7889,0,4.7115,4.7152,4.7225,4.7307,4.7369,4.7354,4.7418,4.7472,4.7555,4.7611,4.7678,4.7778,4.7859,4.7903,4.7985,4.8036,4.8034,4.8057,4.8054,4.8063,4.7921,4.7895,4.8057,4.8057,4.8057,4.8057,4.8057,4.8057,4.7212,4.7318,4.7334,4.7464,4.75,4.7592,4.763,4.7681,4.7726,4.7838,4.7906,4.7934,4.7986,4.8071,4.8146,4.8157,4.8188,4.8214,4.8223,4.809,4.8073,4.8056,4.8032,4.822,4.8221,4.8359,4.836,4.8361]},{"header":{"parameterUnit":"m.s-1","parameterCategory":1,"la1":30.2991,"la2":30.254,"lo1":-89.0895,"lo2":-89.0444,"dy":0.0017,"dx":0.0017,"nx":28,"ny":28,"refTime":"2024-02-23T09:00:00:Z","depth":0,"parameterNumber":3,"parameterNumberName":"V-component_of_WINDS"},"data":[0,0,0,0,0,0,0,0,0,0,0,0,0,0,0,0,0,0,0,0,0,0,0,0,0,0,0,0,0,0,0,0,0,0,0,0,0,0,0,0,0,0,0,0,0,0,0,0,0,0,0,0,0,0,0,0,0,0,-0.4003,-0.4003,0,-0.4002,-0.4002,-0.4002,-0.4028,-0.4029,-0.403,-0.403,-0.4029,-0.4029,-0.4028,0,0,0,0,0,0,0,0,0,0,0,0,0,-0.4026,-0.4026,-0.4003,-0.4003,-0.4003,-0.4002,-0.4002,-0.4002,-0.4028,-0.4029,-0.403,-0.4031,-0.4029,-0.4029,-0.4028,0,0,0,0,0,0,0,0,0,0,0,0,0,-0.402,-0.4026,-0.4003,-0.4016,-0.4017,-0.4002,-0.4002,-0.4002,-0.4028,-0.4029,-0.403,-0.4031,-0.403,-0.4029,-0.4028,-0.4001,0,0,-0.4025,-0.4024,0,0,0,0,0,0,0,0,-0.402,-0.4019,-0.4014,-0.4015,-0.4016,-0.4016,-0.401,-0.4002,-0.4028,-0.4024,-0.403,-0.4031,-0.4024,-0.4024,-0.4021,-0.4001,-0.4001,-0.4025,-0.4024,-0.4024,-0.4023,0,0,0,0,0,0,0,-0.4021,-0.4019,-0.4003,-0.4014,-0.4015,-0.4022,-0.4022,-0.4009,-0.4018,-0.4024,-0.4026,-0.4026,-0.4025,-0.4022,-0.4021,-0.4001,-0.4025,-0.4024,-0.4023,-0.4023,-0.396,-0.3959,0,0,0,0,0,0,-0.4019,-0.4019,-0.4003,-0.4003,-0.4021,-0.402,-0.402,-0.4015,-0.4018,-0.402,-0.4025,-0.4027,-0.4023,-0.4023,-0.4021,-0.3991,-0.4024,-0.4023,-0.4022,-0.3961,-0.396,-0.3959,0,0,0,0,0,0,-0.402,-0.4018,-0.4003,-0.4012,-0.401,-0.4019,-0.4013,-0.4015,-0.4012,-0.4019,-0.4021,-0.402,-0.4024,-0.4023,-0.4006,-0.3992,-0.4022,-0.4021,-0.3962,-0.3961,-0.3959,-0.393,0,0,0,0,0,0,-0.402,-0.4018,-0.4007,-0.4011,-0.401,-0.3987,-0.4012,-0.4014,-0.401,-0.4013,-0.4015,-0.4016,-0.4025,-0.4008,-0.4005,-0.3991,-0.402,-0.3964,-0.3962,-0.396,-0.3932,-0.3928,-0.3924,0,0,0,0,0,-0.4021,-0.3999,-0.4007,-0.4004,-0.3997,-0.3986,-0.3985,-0.3996,-0.4009,-0.3999,-0.4003,-0.4016,-0.3994,-0.4006,-0.4003,-0.3988,-0.3965,-0.3962,-0.396,-0.3934,-0.3929,-0.3924,0,0,0,0,0,0,-0.3992,-0.3999,-0.4008,-0.3986,-0.3986,-0.3991,-0.3978,-0.3989,-0.3984,-0.3987,-0.4,-0.4,-0.3982,-0.3983,-0.3997,-0.3963,-0.3982,-0.3979,-0.3963,-0.3958,-0.3953,-0.3953,-0.402,0,0,0,0,0,-0.3983,-0.3974,-0.3981,-0.3961,-0.396,-0.3969,-0.3965,-0.3973,-0.3973,-0.3972,-0.3976,-0.3975,-0.3968,-0.3963,-0.3956,-0.3933,-0.3934,-0.3922,-0.3917,-0.3914,-0.3911,-0.39,-0.3895,-0.3951,-0.3951,-0.3951,0,0,-0.3965,-0.3968,-0.3961,-0.3955,-0.3956,-0.3946,-0.3969,-0.3957,-0.3951,-0.3971,-0.3956,-0.3958,-0.3958,-0.3938,-0.3929,-0.3939,-0.3896,-0.391,-0.3908,-0.3907,-0.3897,-0.3892,-0.3887,-0.3949,-0.395,-0.395,0,0,-0.3926,-0.3927,-0.3911,-0.3912,-0.3912,-0.3919,-0.3915,-0.3918,-0.3921,-0.3906,-0.3922,-0.3914,-0.3901,-0.3901,-0.3899,-0.3862,-0.3874,-0.3859,-0.3837,-0.3826,-0.3822,-0.3818,-0.3805,-0.3801,-0.3857,-0.3857,-0.3857,0,-0.3903,-0.3889,-0.3902,-0.389,-0.3887,-0.3906,-0.389,-0.389,-0.3888,-0.3886,-0.3897,-0.3882,-0.3883,-0.3864,-0.3855,-0.3853,-0.3849,-0.3859,-0.3821,-0.3817,-0.3814,-0.3803,-0.3798,-0.3855,-0.3855,-0.3855,-0.3855,0,-0.3862,-0.3852,-0.3839,-0.3838,-0.3834,-0.382,-0.3831,-0.3825,-0.3834,-0.3839,-0.3825,-0.3827,-0.3822,-0.3818,-0.3826,-0.3801,-0.3807,-0.3819,-0.3838,-0.3807,-0.3796,-0.3792,-0.3853,-0.3853,-0.3854,-0.3854,0,0,-0.3804,-0.3811,-0.3806,-0.3806,-0.3809,-0.3802,-0.3789,-0.3785,-0.3781,-0.3779,-0.377,-0.3759,-0.3771,-0.3769,-0.3777,-0.3768,-0.374,-0.3781,-0.3782,-0.3774,-0.3713,-0.3704,-0.3699,-0.3748,-0.3747,-0.3746,-0.3713,0,-0.3768,-0.3747,-0.3758,-0.3736,-0.3728,-0.3746,-0.3736,-0.3736,-0.3741,-0.3735,-0.3741,-0.3734,-0.3749,-0.3748,-0.374,-0.3745,-0.3728,-0.3747,-0.3739,-0.3739,-0.3739,-0.3693,-0.3684,-0.3652,-0.3709,-0.3709,-0.3708,0,-0.3722,-0.372,-0.3697,-0.3703,-0.37,-0.369,-0.3688,-0.3682,-0.3683,-0.3688,-0.3686,-0.3697,-0.3686,-0.3704,-0.369,-0.3703,-0.37,-0.3703,-0.3702,-0.3702,-0.3722,-0.3693,-0.3643,-0.3638,-0.3702,-0.3702,-0.3702,0,-0.3684,-0.3675,-0.366,-0.366,-0.3666,-0.3659,-0.3661,-0.3664,-0.3661,-0.3659,-0.3657,-0.3654,-0.3652,-0.3649,-0.366,-0.3672,-0.3644,-0.3663,-0.3648,-0.3648,-0.3641,-0.3642,-0.3591,-0.3638,-0.3638,-0.3639,-0.3639,0,-0.3642,-0.3628,-0.3644,-0.3635,-0.362,-0.3633,-0.3617,-0.3621,-0.3624,-0.3617,-0.3632,-0.3625,-0.3638,-0.3633,-0.3641,-0.3628,-0.3627,-0.363,-0.3633,-0.3629,-0.3629,-0.3628,-0.3631,-0.3637,-0.3638,-0.3638,-0.3638,0,-0.3597,-0.3607,-0.3592,-0.36,-0.3601,-0.359,-0.3596,-0.3589,-0.3595,-0.3586,-0.3584,-0.3594,-0.3589,-0.3599,-0.3594,-0.3599,-0.3582,-0.3587,-0.3582,-0.3583,-0.3568,-0.357,-0.3516,-0.351,-0.356,-0.356,-0.3559,0,-0.357,-0.356,-0.3566,-0.3563,-0.3564,-0.3558,-0.3556,-0.3568,-0.3565,-0.3567,-0.356,-0.3555,-0.3553,-0.3543,-0.355,-0.3547,-0.3553,-0.3534,-0.3552,-0.355,-0.3553,-0.3554,-0.3554,-0.353,-0.3529,-0.3529,-0.3529,0,-0.3522,-0.3527,-0.3523,-0.3522,-0.3519,-0.3517,-0.3518,-0.3514,-0.3528,-0.3523,-0.3518,-0.3516,-0.3512,-0.3508,-0.3507,-0.3509,-0.3521,-0.3523,-0.3519,-0.3516,-0.3514,-0.3516,-0.3572,-0.3524,-0.3524,-0.3525,-0.3525,-0.3525,-0.3485,-0.3478,-0.3481,-0.3477,-0.3479,-0.3479,-0.3472,-0.3478,-0.3474,-0.3472,-0.348,-0.3473,-0.3477,-0.3476,-0.3478,-0.3473,-0.3481,-0.3476,-0.3475,-0.3473,-0.3471,-0.3514,-0.3472,-0.3473,-0.3473,-0.3473,-0.3473,0,-0.3439,-0.3442,-0.3438,-0.3438,-0.3435,-0.3447,-0.3448,-0.3445,-0.3439,-0.3441,-0.3438,-0.3433,-0.3429,-0.3436,-0.3434,-0.3429,-0.3434,-0.3428,-0.3429,-0.3429,-0.3463,-0.3467,-0.3423,-0.3423,-0.3423,-0.3423,-0.3423,-0.3424,-0.3414,-0.3402,-0.3408,-0.3397,-0.3401,-0.3395,-0.3395,-0.3395,-0.3397,-0.3391,-0.3388,-0.3393,-0.3397,-0.3396,-0.3393,-0.3395,-0.3394,-0.3386,-0.339,-0.3422,-0.3427,-0.3431,-0.3435,-0.3385,-0.3385,-0.3357,-0.3356,-0.3356]}]]